This is the latest recevied weather packets stored in our database for station/object SV9TNF-1. If no packets are shown the sender has not sent any weather packets the latest 10 day(s).
| Time | Temp. | Humidity | Pressure | Rain* | Wind** | Luminosity | Snow |
|---|---|---|---|---|---|---|---|
| 1777921965 | 14.44° C | 69% | 1007.5 hPa | 0 mm | 8.94 m/s, 260° | - | - |
| 1777921664 | 14.44° C | 69% | 1007.5 hPa | 0 mm | 6.71 m/s, 219° | - | - |
| 1777921364 | 14.44° C | 70% | 1007.5 hPa | 0 mm | 5.81 m/s, 267° | - | - |
| 1777921064 | 14.44° C | 71% | 1007.5 hPa | 0 mm | 6.71 m/s, 321° | - | - |
| 1777920764 | 14.44° C | 71% | 1007.5 hPa | 0 mm | 6.26 m/s, 183° | - | - |
| 1777920464 | 14.44° C | 71% | 1007.5 hPa | 0 mm | 6.71 m/s, 235° | - | - |
| 1777920164 | 14.44° C | 71% | 1007.5 hPa | 0 mm | 7.15 m/s, 318° | - | - |
| 1777919864 | 14.44° C | 71% | 1007.5 hPa | 0 mm | 10.28 m/s, 258° | - | - |
| 1777919564 | 14.44° C | 71% | 1006.8 hPa | 0 mm | 7.6 m/s, 249° | - | - |
| 1777919264 | 14.44° C | 71% | 1006.8 hPa | 0 mm | 8.05 m/s, 219° | - | - |
| 1777918964 | 13.89° C | 71% | 1006.8 hPa | 0 mm | 8.05 m/s, 222° | - | - |
| 1777918663 | 13.89° C | 71% | 1006.8 hPa | 0 mm | 8.05 m/s, 239° | - | - |
| 1777918363 | 14.44° C | 71% | 1006.8 hPa | 0 mm | 6.26 m/s, 306° | - | - |
| 1777918063 | 13.89° C | 71% | 1006.8 hPa | 0 mm | 7.15 m/s, 311° | - | - |
| 1777917763 | 14.44° C | 71% | 1006.8 hPa | 0 mm | 9.39 m/s, 242° | - | - |
| 1777917464 | 14.44° C | 71% | 1006.8 hPa | 0 mm | 7.6 m/s, 213° | - | - |
| 1777917163 | 14.44° C | 71% | 1006.8 hPa | 0 mm | 7.15 m/s, 302° | - | - |
| 1777916863 | 14.44° C | 70% | 1006.8 hPa | 0 mm | 8.05 m/s, 289° | - | - |
| 1777916563 | 14.44° C | 68% | 1006.8 hPa | 0 mm | 4.92 m/s, 216° | - | - |
| 1777916263 | 15° C | 67% | 1006.8 hPa | 0 mm | 8.49 m/s, 303° | - | - |
| 1777915962 | 15° C | 66% | 1006.4 hPa | 0 mm | 8.49 m/s, 213° | - | - |
| 1777915662 | 15° C | 66% | 1006.4 hPa | 0 mm | 6.71 m/s, 177° | - | - |
| 1777915363 | 15° C | 66% | 1006.4 hPa | 0 mm | 5.81 m/s, 257° | - | - |
| 1777915062 | 15.56° C | 64% | 1006.4 hPa | 0 mm | 8.49 m/s, 283° | - | - |
| 1777914762 | 15.56° C | 64% | 1006.1 hPa | 0 mm | 9.83 m/s, 244° | - | - |
* Rain latest hour (hover to see other rain measurements)
** Current wind speed in m/s (hover to see current wind gust speed)